[[{"header":{"parameterUnit":"m.s-1","parameterCategory":1,"la1":30.2991,"la2":30.254,"lo1":-89.0895,"lo2":-89.0444,"dy":0.0017,"dx":0.0017,"nx":28,"ny":28,"refTime":"2025-07-17T03:00:00:Z","depth":0,"parameterNumber":2,"parameterNumberName":"U-component_of_WINDS"},"data":[0,0,0,0,0,0,0,0,0,0,0,0,0,0,0,0,0,0,0,0,0,0,0,0,0,0,0,0,0,0,0,0,0,0,0,0,0,0,0,0,0,0,0,0,0,0,0,0,0,0,0,0,0,0,0,0,0,0,4.38,4.3803,0,4.4092,4.4095,4.4099,4.4098,4.4095,4.4091,4.4087,4.4384,4.4395,4.4406,0,0,0,0,0,0,0,0,0,0,0,0,0,4.3239,4.3249,4.3799,4.3803,4.3807,4.4091,4.4095,4.4099,4.4099,4.4094,4.409,4.4085,4.438,4.4394,4.4407,0,0,0,0,0,0,0,0,0,0,0,0,0,4.3502,4.3253,4.3799,4.3841,4.3848,4.4091,4.4096,4.41,4.41,4.4094,4.4089,4.4083,4.4376,4.4392,4.4409,4.4629,0,0,4.4462,4.4469,0,0,0,0,0,0,0,0,4.3487,4.3523,4.3831,4.3839,4.3846,4.4053,4.4007,4.4278,4.4101,4.4004,4.4087,4.408,4.4278,4.4303,4.437,4.4643,4.4656,4.4463,4.4474,4.4481,4.4486,0,0,0,0,0,0,0,4.3469,4.351,4.3915,4.3836,4.3845,4.3845,4.3876,4.4058,4.4169,4.4012,4.4013,4.4048,4.4281,4.4354,4.4377,4.466,4.4463,4.4478,4.4489,4.4495,4.5128,4.5134,0,0,0,0,0,0,4.3442,4.3495,4.3906,4.3924,4.3649,4.3859,4.3894,4.3992,4.4167,4.4189,4.4052,4.4046,4.4327,4.4357,4.4388,4.4657,4.4481,4.4497,4.4507,4.5121,4.5129,4.5136,0,0,0,0,0,0,4.343,4.3479,4.3894,4.371,4.3763,4.3875,4.3985,4.4001,4.4074,4.4198,4.4217,4.4106,4.4324,4.4364,4.4569,4.4667,4.4505,4.452,4.5114,4.5124,4.5133,4.5197,0,0,0,0,0,0,4.3414,4.3475,4.356,4.3712,4.3772,4.4072,4.3991,4.4011,4.4103,4.4099,4.4253,4.4273,4.4323,4.4544,4.4586,4.4688,4.4534,4.5105,4.5118,4.513,4.5186,4.5207,4.5225,0,0,0,0,0,4.3394,4.3565,4.3564,4.3614,4.3881,4.4077,4.4112,4.4166,4.4111,4.4198,4.4277,4.4268,4.4649,4.4565,4.4613,4.4721,4.5099,4.5115,4.5129,4.5177,4.5203,4.5225,0,0,0,0,0,0,4.3421,4.3586,4.3586,4.3812,4.3931,4.4077,4.4187,4.4191,4.4327,4.4317,4.4377,4.4412,4.4617,4.469,4.4592,4.4943,4.4868,4.4893,4.4888,4.4914,4.4933,4.4911,4.4548,0,0,0,0,0,4.3453,4.36,4.3735,4.3921,4.3981,4.4074,4.4161,4.4193,4.4318,4.4368,4.4462,4.4583,4.473,4.4826,4.4968,4.5196,4.523,4.5295,4.5314,4.5329,4.535,4.5477,4.5507,4.5184,4.5184,4.5184,0,0,4.3521,4.363,4.3718,4.393,4.4025,4.4175,4.4116,4.4277,4.4388,4.4392,4.4592,4.4666,4.4805,4.5023,4.5124,4.509,4.5447,4.5348,4.5359,4.5372,4.5495,4.5526,4.5553,4.5194,4.5193,4.5191,0,0,4.3722,4.3818,4.3984,4.4081,4.4227,4.4288,4.4328,4.4474,4.4524,4.4726,4.4732,4.4865,4.5117,4.5216,4.5299,4.5538,4.5535,4.5582,4.5685,4.5807,4.5833,4.5856,4.5941,4.5971,4.5603,4.5603,4.5603,0,4.3787,4.4014,4.4068,4.423,4.4323,4.4334,4.4502,4.4594,4.4778,4.4842,4.4801,4.5118,4.5213,4.5454,4.5513,4.558,4.5627,4.5565,4.5825,4.5848,4.587,4.5953,4.5984,4.5608,4.5607,4.5607,4.5606,0,4.4088,4.4244,4.4361,4.454,4.4646,4.481,4.4889,4.4989,4.5011,4.5076,4.5282,4.5396,4.5562,4.5621,4.5644,4.5867,4.5841,4.5812,4.5738,4.5905,4.5983,4.6015,4.5615,4.5613,4.5612,4.561,0,0,4.4313,4.4521,4.4563,4.4644,4.4806,4.4928,4.5093,4.5256,4.5341,4.5468,4.5607,4.582,4.5795,4.5889,4.5923,4.6031,4.6213,4.5989,4.5993,4.6027,4.6466,4.6487,4.6523,4.6212,4.6218,4.6223,4.6455,0,4.4531,4.4824,4.4878,4.5133,4.5279,4.5292,4.5435,4.555,4.5615,4.5748,4.5819,4.597,4.5924,4.5981,4.6089,4.6168,4.6302,4.6152,4.6342,4.6348,4.6307,4.6564,4.6587,4.6799,4.6485,4.6491,4.6494,0,4.4824,4.4959,4.5229,4.5373,4.5436,4.5564,4.5718,4.5845,4.5975,4.6015,4.6121,4.6143,4.6313,4.6231,4.6467,4.6364,4.6445,4.6496,4.6505,4.6525,4.6431,4.6591,4.6869,4.69,4.6543,4.6539,4.6536,0,4.4961,4.5211,4.5405,4.5475,4.5647,4.5736,4.5812,4.5937,4.6032,4.6166,4.6228,4.638,4.6463,4.658,4.6642,4.6577,4.6874,4.6797,4.6912,4.6911,4.6974,4.6969,4.7269,4.7026,4.7025,4.7025,4.7024,0,4.5199,4.5364,4.547,4.5589,4.5774,4.5835,4.6016,4.609,4.6201,4.6335,4.6355,4.6479,4.6554,4.669,4.6739,4.6928,4.6965,4.7002,4.7013,4.7001,4.6996,4.7054,4.7041,4.7033,4.7031,4.703,4.7028,0,4.5384,4.5461,4.5674,4.582,4.586,4.599,4.6115,4.6231,4.6296,4.6465,4.6508,4.661,4.6771,4.6845,4.7043,4.7076,4.7291,4.7292,4.7247,4.7252,4.7362,4.7351,4.7711,4.7761,4.7483,4.7486,4.7488,0,4.553,4.5658,4.5818,4.5909,4.5987,4.6134,4.6232,4.6296,4.6396,4.6555,4.6652,4.6814,4.6946,4.7203,4.7294,4.7446,4.7451,4.7566,4.7474,4.7457,4.7453,4.7445,4.7458,4.7583,4.7586,4.7588,4.759,0,4.5783,4.5815,4.5955,4.6109,4.6224,4.6348,4.6469,4.6543,4.6627,4.6738,4.6903,4.7006,4.721,4.737,4.7528,4.7605,4.7612,4.7618,4.7653,4.7641,4.7611,4.763,4.7293,4.761,4.7608,4.7606,4.7605,4.7604,4.5953,4.6067,4.6198,4.6353,4.6452,4.6565,4.6682,4.6762,4.6901,4.7072,4.7102,4.7278,4.7405,4.7618,4.7701,4.7839,4.7812,4.7862,4.7875,4.7886,4.7893,4.7588,4.7868,4.7868,4.7867,4.7867,4.7867,0,4.6207,4.6292,4.6434,4.6604,4.6726,4.6722,4.6857,4.6959,4.7114,4.7233,4.7363,4.7553,4.7709,4.7813,4.7971,4.8062,4.8069,4.8101,4.8095,4.8113,4.7908,4.7863,4.8093,4.8093,4.8093,4.8093,4.8093,4.8093,4.6353,4.6546,4.6594,4.6836,4.692,4.7093,4.717,4.7275,4.737,4.7582,4.7712,4.7779,4.7892,4.8058,4.8201,4.8228,4.8285,4.8319,4.8344,4.8151,4.8127,4.8105,4.8062,4.833,4.8331,4.8537,4.8539,4.8541]},{"header":{"parameterUnit":"m.s-1","parameterCategory":1,"la1":30.2991,"la2":30.254,"lo1":-89.0895,"lo2":-89.0444,"dy":0.0017,"dx":0.0017,"nx":28,"ny":28,"refTime":"2025-07-17T03:00:00:Z","depth":0,"parameterNumber":3,"parameterNumberName":"V-component_of_WINDS"},"data":[0,0,0,0,0,0,0,0,0,0,0,0,0,0,0,0,0,0,0,0,0,0,0,0,0,0,0,0,0,0,0,0,0,0,0,0,0,0,0,0,0,0,0,0,0,0,0,0,0,0,0,0,0,0,0,0,0,0,2.2681,2.2677,0,2.229,2.2285,2.2281,2.2079,2.2079,2.2079,2.2079,2.1661,2.1651,2.164,0,0,0,0,0,0,0,0,0,0,0,0,0,2.3239,2.323,2.2682,2.2677,2.2672,2.2291,2.2285,2.228,2.2079,2.2079,2.2079,2.2079,2.1665,2.1652,2.1639,0,0,0,0,0,0,0,0,0,0,0,0,0,2.2937,2.3227,2.2683,2.2526,2.2509,2.2292,2.2285,2.2278,2.2079,2.2079,2.2079,2.2078,2.1669,2.1653,2.1637,2.1541,0,0,2.1587,2.158,0,0,0,0,0,0,0,0,2.2955,2.2917,2.2554,2.2537,2.2516,2.2234,2.2328,2.2031,2.2079,2.2242,2.2079,2.2078,2.1851,2.1819,2.1746,2.1521,2.1504,2.1585,2.1576,2.1568,2.1564,0,0,0,0,0,0,0,2.2976,2.2933,2.2526,2.2549,2.2526,2.247,2.2427,2.2271,2.2052,2.2227,2.2212,2.2169,2.184,2.1762,2.1735,2.1497,2.1586,2.1571,2.1561,2.1555,2.117,2.1169,0,0,0,0,0,0,2.3024,2.2951,2.2539,2.2514,2.274,2.2461,2.2412,2.2324,2.2053,2.2012,2.217,2.2161,2.1791,2.1754,2.1719,2.1586,2.1569,2.1553,2.1544,2.117,2.1169,2.1169,0,0,0,0,0,0,2.3037,2.299,2.2554,2.2729,2.2669,2.2451,2.2354,2.2317,2.2239,2.201,2.1968,2.2132,2.1789,2.1742,2.1587,2.1569,2.1546,2.1531,2.117,2.117,2.1169,2.1323,0,0,0,0,0,0,2.3054,2.2995,2.2961,2.273,2.2661,2.2435,2.2353,2.2309,2.2213,2.2198,2.1963,2.1924,2.1785,2.1613,2.1571,2.1546,2.1518,2.1171,2.117,2.1169,2.1318,2.1328,2.1335,0,0,0,0,0,2.3075,2.3017,2.296,2.2911,2.2614,2.2434,2.2394,2.2241,2.2213,2.2173,2.2025,2.1931,2.1579,2.1599,2.155,2.152,2.1171,2.117,2.117,2.1314,2.1326,2.1335,0,0,0,0,0,0,2.3246,2.2984,2.2918,2.2785,2.2634,2.2401,2.2346,2.2258,2.2108,2.2099,2.191,2.1858,2.172,2.1603,2.1631,2.141,2.1365,2.1354,2.1492,2.1501,2.1509,2.1539,2.1504,0,0,0,0,0,2.3269,2.3151,2.2925,2.2829,2.2757,2.2566,2.2482,2.2377,2.221,2.2144,2.1985,2.1823,2.1675,2.1581,2.1433,2.1301,2.1244,2.1256,2.1264,2.1273,2.1265,2.1182,2.1184,2.1166,2.1166,2.1166,0,0,2.3314,2.3156,2.3092,2.286,2.273,2.2607,2.2513,2.2386,2.229,2.2123,2.1968,2.1846,2.1651,2.1507,2.1435,2.1406,2.1257,2.1271,2.128,2.1267,2.1182,2.1184,2.1185,2.1166,2.1166,2.1166,0,0,2.3332,2.3203,2.3108,2.2981,2.2789,2.2661,2.2639,2.2418,2.2332,2.2175,2.2046,2.1926,2.1677,2.1543,2.1443,2.141,2.1316,2.1366,2.141,2.1333,2.1334,2.1334,2.1319,2.1317,2.136,2.136,2.136,0,2.3411,2.3225,2.3068,2.2949,2.2849,2.2697,2.2596,2.2478,2.2245,2.2177,2.2149,2.1832,2.169,2.1511,2.1504,2.1428,2.1392,2.1392,2.1348,2.1346,2.1344,2.1327,2.1323,2.1367,2.1366,2.1366,2.1365,0,2.3329,2.3202,2.3147,2.2932,2.2825,2.2715,2.2537,2.2447,2.2351,2.2225,2.2064,2.1889,2.1702,2.1651,2.1555,2.1457,2.1445,2.1385,2.1335,2.1356,2.1337,2.1329,2.1378,2.1375,2.1373,2.1371,0,0,2.3443,2.3145,2.3127,2.3026,2.2803,2.2698,2.2579,2.2401,2.2326,2.2169,2.2062,2.1854,2.1797,2.1683,2.1569,2.1502,2.1483,2.1448,2.144,2.1459,2.136,2.1406,2.1402,2.142,2.1419,2.1417,2.1376,0,2.3428,2.3216,2.3071,2.2912,2.279,2.2643,2.2538,2.2387,2.2266,2.2139,2.2002,2.1858,2.1795,2.1725,2.1651,2.1502,2.146,2.1502,2.1313,2.1308,2.1365,2.1392,2.144,2.141,2.1368,2.1366,2.1365,0,2.3383,2.3237,2.3068,2.2856,2.2799,2.2709,2.2533,2.2416,2.2239,2.2155,2.2029,2.1913,2.1775,2.174,2.1544,2.1576,2.1489,2.1404,2.1398,2.1373,2.1337,2.1365,2.1397,2.1392,2.1353,2.1354,2.1355,0,2.3481,2.3241,2.3108,2.3027,2.2777,2.2717,2.2609,2.2432,2.2334,2.2177,2.2111,2.1939,2.1844,2.1711,2.155,2.1539,2.137,2.1321,2.1291,2.1295,2.126,2.1265,2.1277,2.1209,2.1209,2.121,2.121,0,2.3478,2.338,2.3149,2.3067,2.2951,2.2783,2.267,2.2549,2.2393,2.228,2.214,2.2036,2.1832,2.17,2.1573,2.1428,2.1387,2.1311,2.1277,2.1322,2.1332,2.1261,2.1258,2.1208,2.1208,2.1209,2.1209,0,2.3567,2.341,2.3255,2.3033,2.2974,2.2898,2.2704,2.2616,2.2488,2.2347,2.2304,2.21,2.1939,2.1766,2.1544,2.1458,2.1319,2.1273,2.1381,2.1362,2.1341,2.1345,2.1306,2.1291,2.1238,2.1239,2.124,0,2.3576,2.3497,2.3268,2.3186,2.3083,2.2951,2.2851,2.2681,2.2582,2.2374,2.2309,2.2139,2.1994,2.1741,2.1569,2.1398,2.1346,2.1344,2.1318,2.1365,2.1342,2.1348,2.1337,2.1352,2.1353,2.1354,2.1355,0,2.3606,2.3532,2.3397,2.3234,2.312,2.2981,2.2837,2.2776,2.2576,2.247,2.2307,2.2194,2.197,2.18,2.1609,2.1489,2.1387,2.1365,2.1349,2.1392,2.1457,2.1419,2.1401,2.1366,2.1365,2.1364,2.1364,2.1363,2.3652,2.3575,2.3402,2.3255,2.313,2.2998,2.2904,2.2766,2.2629,2.2437,2.2343,2.2179,2.1999,2.1732,2.1616,2.1481,2.1449,2.1427,2.142,2.1416,2.1427,2.1482,2.1445,2.1444,2.1444,2.1443,2.1443,0,2.3673,2.3555,2.3422,2.3227,2.311,2.3031,2.2866,2.2772,2.2632,2.2476,2.2337,2.2146,2.1981,2.1797,2.1619,2.1545,2.1494,2.1504,2.1506,2.148,2.1466,2.1497,2.1549,2.1549,2.1549,2.1549,2.1549,2.1549,2.367,2.3535,2.3441,2.324,2.3119,2.2963,2.2876,2.2751,2.2626,2.2422,2.2287,2.217,2.2,2.1808,2.1651,2.16,2.1539,2.1563,2.1499,2.1489,2.1481,2.1473,2.1501,2.1552,2.1552,2.1523,2.1523,2.1522]}]]